logo dgac
Miércoles 20 de Marzo del 2019
Buscar por aerodromo o helipuerto
Ingrese nombre de aeródromo, localidad o designador OACI:

Aeródromo: Chile Chico (PUB) (SCCC)

Ubicación: Chile Chico, XI Región, Chile (46º 34' 58'' S, 71º 41' 12'' W) Ver ubicación en el mapa

Pistas

Orientación Dimensión Pendiente Superficie Resistencia APCH THR RWY PAPI
12/30 1200 x 23 0,70 ASPH 20.000 Kg No No No No
Horas de operación HJ
Elevación 326 m / 1070 ft
Otra Información Adm : D.G.A.C.
Uso : PUB
Ubicado : 7 km SE Chile Chico
TEL 672411284

Ad. AFIS Fcia. 127.7 MHZ / radio 5.454 KHz

Otra información ver AIP-Chile Volumen I AD 3.9-3.7-C

CCCM/FCCV Descargar
andera de Chile
Mapa de Chile Chico (PUB) (SCCC)

Último METAR

METAR SCCC 202000Z 36005KT CAVOK 15/M00 Q1018

Último TAF

No hay tafs registrados para este aeródromo

Últimas fotos cámaras

Imagen aerodromo Chile Chico (PUB) (SCCC) S-Este tomada el 20-03-2019 09:32:13 Imagen aerodromo Chile Chico (PUB) (SCCC) Norte tomada el 20-03-2019 09:32:20

Último NOTAM

No hay notams registrados para este aeródromo

LLegadas a Chile Chico (PUB) (SCCC)

En vuelo

Vuelo Procedencia Hora Despegue Local Hora Arribo Local

Salidas de Chile Chico (PUB) (SCCC)

En vuelo

Vuelo Hacia Hora Despegue Local Hora Arribo Local